Télécharger nos applis :
Date Heure Temperature Direction Vent Rafales Pluie Pression Humidité Condition
VEN.
24
02:00 6°C 5 5 --- 1019 hPa 94% Ensoleillé / Ciel clair
05:00 5°C 5 5 --- 1019 hPa 94% Ensoleillé / Ciel clair
08:00 8°C 0 0 --- 1019 hPa 90% Ciel voilé
11:00 12°C 5 5 --- 1018 hPa 71% Couvert
14:00 13°C 5 5 0.9 mm 1017 hPa 73% Peu nuageux
17:00 12°C 5 5 1.6 mm 1017 hPa 83% Averses de pluie faible
20:00 11°C 5 5 1.7 mm 1017 hPa 86% Peu nuageux
23:00 7°C 5 5 0.4 mm 1018 hPa 92% Averses de pluie faible
SAM.
25
02:00 6°C 5 5 0.2 mm 1018 hPa 92% Peu nuageux
05:00 6°C 5 5 --- 1018 hPa 92% Couvert
08:00 9°C 0 5 --- 1019 hPa 90% Couvert
11:00 14°C 5 0 --- 1018 hPa 69% Couvert
14:00 16°C 5 5 --- 1017 hPa 60% Couvert
17:00 16°C 5 5 0.4 mm 1016 hPa 59% Averses de pluie faible
20:00 14°C 5 5 0.5 mm 1017 hPa 79% Averses de pluie faible
23:00 10°C 5 5 --- 1018 hPa 87% Couvert
DIM.
26
02:00 9°C 5 5 --- 1018 hPa 86% Couvert
05:00 8°C 5 5 --- 1018 hPa 89% Couvert
08:00 11°C 5 5 --- 1018 hPa 82% Couvert
11:00 16°C 5 5 --- 1018 hPa 61% Couvert
14:00 18°C 10 10 0.1 mm 1017 hPa 58% Couvert
17:00 17°C 10 10 0.6 mm 1017 hPa 69% Averses de pluie faible
20:00 13°C 5 15 1 mm 1019 hPa 94% Averses de pluie faible
23:00 11°C 0 0 0.6 mm 1020 hPa 95% Averses de pluie faible
LUN.
27
02:00 10°C 5 5 0.6 mm 1019 hPa 96% Averses de pluie faible
05:00 10°C 5 5 0.4 mm 1019 hPa 96% Averses de pluie faible
08:00 11°C 5 5 1 mm 1019 hPa 96% Averses de pluie faible
11:00 10°C 5 5 6.2 mm 1018 hPa 99% Brouillard / Brumeux
14:00 10°C 0 5 5.7 mm 1018 hPa 98% Pluie
17:00 12°C 0 5 0.6 mm 1017 hPa 94% Averses de pluie faible
20:00 11°C 5 5 0.7 mm 1017 hPa 93% Averses de pluie faible
23:00 9°C 5 15 0.6 mm 1018 hPa 97% Averses de pluie faible
MAR.
28
02:00 9°C 10 15 3.4 mm 1018 hPa 97% Pluie
05:00 7°C 5 15 3.5 mm 1019 hPa 96% Pluie
08:00 8°C 5 15 2.3 mm 1020 hPa 94% Pluie
11:00 9°C 10 15 0.4 mm 1020 hPa 85% Averses de pluie faible
14:00 12°C 10 10 0.5 mm 1020 hPa 71% Averses de pluie faible
17:00 13°C 5 5 0.6 mm 1020 hPa 68% Averses de pluie faible
20:00 10°C 5 5 0.9 mm 1021 hPa 88% Averses de pluie faible
23:00 8°C 5 0 --- 1022 hPa 92% Couvert
MER.
29
02:00 6°C 5 5 --- 1022 hPa 94% Peu nuageux
05:00 6°C 5 5 --- 1022 hPa 95% Couvert
08:00 8°C 0 5 --- 1023 hPa 92% Peu nuageux
11:00 12°C 5 5 0.2 mm 1022 hPa 76% Peu nuageux
14:00 14°C 5 5 0.4 mm 1021 hPa 70% Ciel voilé
17:00 15°C 5 5 0.8 mm 1020 hPa 68% Ciel voilé
20:00 13°C 5 5 0.9 mm 1020 hPa 88% Ciel voilé
23:00 9°C 5 5 --- 1021 hPa 92% Peu nuageux
JEU.
30
02:00 8°C 5 5 --- 1020 hPa 93% Couvert
05:00 7°C 5 5 --- 1019 hPa 93% Couvert
08:00 10°C 0 5 --- 1019 hPa 90% Couvert
11:00 14°C 0 0 --- 1018 hPa 72% Couvert
14:00 16°C 10 10 --- 1017 hPa 68% Couvert
17:00 16°C 5 10 --- 1016 hPa 66% Couvert
20:00 14°C 5 5 --- 1016 hPa 79% Couvert
23:00 11°C 5 5 --- 1016 hPa 85% Couvert
VEN.
31
02:00 11°C 5 5 0.2 mm 1016 hPa 96% Averses de pluie faible
05:00 11°C 5 5 1.4 mm 1015 hPa 97% Averses de pluie faible
08:00 12°C 5 5 1.4 mm 1016 hPa 96% Averses de pluie faible
11:00 13°C 10 15 1.5 mm 1016 hPa 91% Peu nuageux
14:00 16°C 15 15 1.4 mm 1015 hPa 75% Peu nuageux
17:00 15°C 10 10 2.4 mm 1016 hPa 84% Pluie
20:00 14°C 5 5 2 mm 1016 hPa 86% Pluie
23:00 9°C 5 5 --- 1018 hPa 92% Ensoleillé / Ciel clair
SAM.
01
02:00 8°C 0 0 --- 1018 hPa 95% Ensoleillé / Ciel clair
05:00 7°C 0 0 --- 1018 hPa 96% Ensoleillé / Ciel clair
08:00 9°C 5 5 --- 1018 hPa 93% Ciel voilé
11:00 14°C 5 5 --- 1018 hPa 75% Couvert
14:00 15°C 5 5 --- 1018 hPa 73% Couvert
17:00 16°C 10 10 --- 1017 hPa 71% Couvert
20:00 14°C 5 5 0.2 mm 1018 hPa 89% Averses de pluie faible
23:00 10°C 5 5 0.3 mm 1019 hPa 93% Peu nuageux
DIM.
02
02:00 10°C 5 5 0.2 mm 1018 hPa 93% Averses de pluie faible
05:00 9°C 5 5 --- 1018 hPa 94% Couvert
08:00 10°C 5 5 --- 1019 hPa 92% Couvert
11:00 13°C 5 10 0.7 mm 1019 hPa 87% Peu nuageux
14:00 14°C 10 15 0.8 mm 1018 hPa 80% Averses de pluie faible
17:00 13°C 15 20 1.3 mm 1018 hPa 83% Averses de pluie faible
20:00 11°C 10 20 1 mm 1019 hPa 90% Averses de pluie faible
23:00 9°C 10 20 --- 1020 hPa 88% Couvert
LUN.
03
02:00 9°C 5 10 --- 1020 hPa 88% Couvert